Simultaneous Nadir Overpasses (SNOs) Predictions

Prediction of SNOs near equator between AQUA and NPP Satellite Orbit:

Table of predicted SNOs near equator for the next 14.0 days since TLE Epoch: 8/11/2016
Index Date (AQUA) Time (AQUA) AQUA Lat,Lon Date (NPP) Time (NPP) NPP Lat,Lon Distance(km) Time Diff (sec)
1 08/11/2016 23:23:44 -21.34, 29.66 08/11/2016 23:13:44 -21.35, 29.60 6.71 600
2 08/12/2016 00:07:55 2.04,-158.47 08/11/2016 23:59:04 2.03,-158.63 17.73 531
3 08/12/2016 00:56:03 2.44, 10.14 08/12/2016 00:48:27 2.53, 9.72 47.51 456
4 08/12/2016 01:44:18 -7.03, 178.74 08/12/2016 01:37:57 -7.19, 178.07 76.70 381
5 08/14/2016 15:36:31 -7.99, 148.52 08/14/2016 15:26:50 -7.99, 148.51 0.76 581
6 08/14/2016 16:23:59 0.57, -42.28 08/14/2016 16:15:32 0.52, -42.51 27.06 507
7 08/14/2016 17:12:07 3.91, 126.33 08/14/2016 17:04:55 4.05, 125.84 57.07 432
8 08/14/2016 18:00:21 -8.56, -65.05 08/14/2016 17:54:25 -8.70, -65.82 85.87 356
9 08/17/2016 07:51:48 -3.69, -94.68 08/17/2016 07:42:30 -3.67, -94.74 7.10 558
10 08/17/2016 08:40:03 -0.89, 73.91 08/17/2016 08:32:01 -0.92, 73.58 36.93 482
11 08/17/2016 09:28:10 5.43,-117.46 08/17/2016 09:21:23 5.55,-118.05 66.41 407
12 08/17/2016 10:16:26 -9.95, 51.13 08/17/2016 10:10:54 -10.14, 50.29 95.02 332
13 08/19/2016 23:24:50 25.27,-151.30 08/19/2016 23:14:50 25.29,-151.40 10.84 600
14 08/20/2016 00:07:50 -2.18, 21.52 08/19/2016 23:58:57 -2.16, 21.37 16.57 533
15 08/20/2016 00:56:05 -2.39,-169.88 08/20/2016 00:48:27 -2.49,-170.29 46.37 458
16 08/20/2016 01:44:12 6.94, -1.26 08/20/2016 01:37:50 7.06, -1.93 75.86 382
17 08/22/2016 15:36:19 7.24, -31.33 08/22/2016 15:26:36 7.24, -31.32 1.27 583
18 08/22/2016 16:23:53 -0.69, 137.72 08/22/2016 16:15:25 -0.66, 137.49 26.44 508
19 08/22/2016 17:12:08 -3.88, -53.68 08/22/2016 17:04:55 -3.98, -54.18 56.03 433
20 08/22/2016 18:00:16 8.38, 114.94 08/22/2016 17:54:18 8.56, 114.18 85.18 358
21 08/25/2016 07:51:49 3.76, 85.30 08/25/2016 07:42:30 3.75, 85.24 6.18 559
22 08/25/2016 08:39:56 0.80,-106.08 08/25/2016 08:31:52 0.89,-106.39 36.15 484
23 08/25/2016 09:28:11 -5.37, 62.52 08/25/2016 09:21:23 -5.48, 61.93 65.70 408
24 08/25/2016 10:16:18 9.92,-128.85 08/25/2016 10:10:45 10.11,-129.69 94.32 333




NCC Satellite Simultaneous Nadir Overpasses (SNOs) Prediction Service
